This is the latest recevied weather packets stored in our database for station/object IW1QLH-13. If no packets are shown the sender has not sent any weather packets the latest 10 day(s).
| Time | Temp. | Humidity | Pressure | Rain* | Wind** | Luminosity | Snow |
|---|---|---|---|---|---|---|---|
| 1777464448 | 22.78° C | 52% | 1007.6 hPa | - | - | 972 W/m² | - |
| 1777463812 | 22.78° C | 49% | 1007.6 hPa | - | - | 972 W/m² | - |
| 1777463179 | 22.78° C | 52% | 1007.6 hPa | - | - | 972 W/m² | - |
| 1777462547 | 22.78° C | 56% | 1007.7 hPa | - | - | 972 W/m² | - |
| 1777461915 | 23.89° C | 57% | 1007.7 hPa | - | - | 958 W/m² | - |
| 1777461283 | 22.78° C | 58% | 1007.7 hPa | - | - | 929 W/m² | - |
| 1777460651 | 23.89° C | 56% | 1007.7 hPa | - | - | 929 W/m² | - |
| 1777460016 | 22.78° C | 58% | 1007.7 hPa | - | - | 900 W/m² | - |
| 1777459384 | 23.89° C | 57% | 1007.7 hPa | - | - | 886 W/m² | - |
| 1777458743 | 23.89° C | 57% | 1007.7 hPa | - | - | 872 W/m² | - |
| 1777458111 | 22.78° C | 58% | 1007.8 hPa | - | - | 858 W/m² | - |
| 1777457477 | 22.78° C | 58% | 1007.8 hPa | - | - | 843 W/m² | - |
| 1777456845 | 22.78° C | 59% | 1007.8 hPa | - | - | 829 W/m² | - |
| 1777456207 | 21.67° C | 58% | 1007.9 hPa | - | - | 800 W/m² | - |
| 1777455575 | 22.78° C | 58% | 1007.8 hPa | - | - | 729 W/m² | - |
| 1777454944 | 22.78° C | 59% | 1008 hPa | - | - | 729 W/m² | - |
| 1777454313 | 22.78° C | 58% | 1007.9 hPa | - | - | 715 W/m² | - |
| 1777453681 | 22.78° C | 58% | 1007.8 hPa | - | - | 657 W/m² | - |
| 1777453050 | 21.67° C | 59% | 1007.7 hPa | - | - | 629 W/m² | - |
| 1777452420 | 22.78° C | 56% | 1007.8 hPa | - | - | 586 W/m² | - |
| 1777451789 | 21.67° C | 56% | 1007.8 hPa | - | - | 557 W/m² | - |
| 1777451157 | 21.67° C | 58% | 1007.8 hPa | - | - | 529 W/m² | - |
| 1777450526 | 22.78° C | 58% | 1007.8 hPa | - | - | 471 W/m² | - |
| 1777449895 | 21.67° C | 60% | 1007.8 hPa | - | - | 429 W/m² | - |
| 1777449265 | 21.67° C | 67% | 1007.9 hPa | - | - | 386 W/m² | - |
* Rain since midnight (hover to see other rain measurements)
** Current wind speed in m/s (hover to see current wind gust speed)